Simultaneous Nadir Overpasses (SNOs) Predictions

Prediction of SNOs between AURA and NPP Satellite Orbit:

Table of predicted SNOs for the next 14.0 days since TLE Epoch: 12/27/2013
Index Date (AURA) Time (AURA) Lat,Lon (AURA) SZA (AURA ) Date (NPP) Time (NPP) Lat,Lon (NPP) SZA (NPP ) Distance(km) Time Diff (sec)
1 12/29/2013 02:03:18 -78.64,-139.12 63.57 12/29/2013 02:02:51 -78.63,-139.11 63.55 0.26 27
2 12/29/2013 02:52:36 78.96, 30.35 116.02 12/29/2013 02:53:27 78.96, 30.31 115.98 0.97 51
3 12/31/2013 17:32:52 71.20, 147.83 124.13 12/31/2013 17:31:39 71.47, 146.16 124.52 66.46 73
4 12/31/2013 18:19:47 -78.73, -22.71 63.81 12/31/2013 18:19:47 -78.74, -22.69 63.82 0.63 0
5 01/03/2014 09:46:56 78.45, -75.97 116.38 01/03/2014 09:46:07 78.45, -76.02 116.42 1.07 49
6 01/03/2014 10:36:15 -78.80, 93.54 64.07 01/03/2014 10:36:43 -78.80, 93.48 64.08 1.23 28
7 01/06/2014 02:03:22 78.62, 40.77 115.94 01/06/2014 02:03:01 78.62, 40.81 115.95 0.93 21
8 01/06/2014 02:52:41 -78.96,-149.66 64.51 01/06/2014 02:53:37 -78.97,-149.62 64.56 1.06 56
9 01/08/2014 17:30:31 -78.39, -12.20 64.05 01/08/2014 17:29:21 -78.39, -12.11 64.01 2.05 70




NCC Satellite Simultaneous Nadir Overpasses (SNOs) Prediction Service
